Vertical_Velocity
2 2 1 -2 0 3 0 6 -1 3 2 2 -3 6 2 -5 3 6 7 -8 2 2 -3 -4 -1 -1 -1 2 0 -2 -4 -0 -3 -3 1 3 4 1 4 7 3 -3 2
1 -1 1 -1 -2 -0 4 3 3 1 3 -1 2 6 1 2 0 2 0 5 51 2 -0 -7 -3 0 1 -1 0 1 -1 1 -0 2 -3 -8 18 -1 -8 4 0 -7 -2
-3 -2 -0 -3 -2 2 5 2 7 1 -6 -1 -1 3 3 4 4 31 3 9 2 11 3 40 -2 -1 -1 3 -1 0 -2 -0 1 -1 0 -4 -4 13 10 -4 9 8 7
0 3 -3 -3 -4 0 0 3 5 5 9 5 -7 -1 1 2 5 0 5 21 -16 24 3 10 -6 -11 -5 -3 2 -1 -1 -4 3 -6 4 -3 5 3 3 4 -0 -2 0
-0 -5 -3 -1 -1 -4 1 4 7 0 2 8 5 0 -2 3 2 3 -2 -2 1 -3 0 12 38 60 1 -6 -6 -0 -1 0 -0 0 -6 1 -2 -8 3 8 7 3 17
3 3 0 -2 -2 -1 -0 2 4 2 -2 3 7 6 2 -2 -1 5 -1 11 2 9 6 10 0 -4 8 10 -3 9 -3 3 5 6 5 0 -2 3 -1 6 -4 5 10
-1 -2 0 1 2 1 1 5 2 4 1 -1 -2 2 6 2 1 -1 -4 1 3 2 7 39 10 28 4 18 26 26 39 2 2 6 3 -0 3 2 -1 -6 -0 -2 -2
1 0 1 2 1 1 1 0 2 3 2 2 3 -3 4 5 2 -1 -3 8 14 7 7 2 17 17 7 7 4 1 18 16 -0 1 -2 5 2 -0 4 1 1 -3 1
2 2 5 3 1 1 2 0 1 -0 0 -0 2 1 -2 -4 1 4 3 5 2 15 -3 18 15 3 20 1 37 1 1 4 4 25 -3 1 -5 2 0 -1 3 5 -2
-3 1 1 2 3 2 1 1 1 2 0 -1 0 -0 -3 2 -1 1 1 2 3 2 4 3 12 12 13 3 3 5 8 0 11 13 -2 -5 -0 3 -4 0 6 -1 -0
6 -5 -1 2 1 1 2 3 3 2 1 2 1 1 -0 1 -1 -2 1 1 3 1 1 4 0 7 2 -1 11 -4 5 9 8 6 -9 24 16 10 1 -3 -3 2 0
3 -0 5 1 1 2 3 3 3 2 2 1 1 1 2 1 2 4 1 -0 -1 1 -1 3 2 8 3 4 21 16 20 7 -4 -2 7 20 1 -4 -0 -8 2 -2 -2
3 -3 -2 0 1 2 3 2 2 1 1 0 0 0 1 1 1 0 -1 2 1 -0 -1 1 1 1 1 1 2 22 10 13 4 6 -4 13 7 1 -1 2 2 1 -2
-2 -3 1 5 5 2 0 -0 -0 -0 -0 -0 0 -0 -1 -0 -2 1 0 0 -1 0 1 -1 -0 -2 -1 2 0 0 -0 0 16 19 0 15 4 -6 24 5 5 7 -2
2 3 5 0 1 -3 -2 -2 -1 -1 -1 -1 -2 -2 -2 -1 -0 -1 -4 -4 -0 -1 -0 -4 -0 3 2 -1 1 5 5 8 6 2 1 5 14 7 0 -2 5 10 4
-2 2 4 8 1 2 1 -1 -1 -1 -1 -1 -1 -2 -2 -2 -4 -3 -0 -0 -1 -3 -3 -2 -2 -1 -1 -1 -3 -3 -2 -5 1 -3 5 8 1 -1 1 -2 -4 24 10
1 1 0 1 0 3 4 2 1 0 -2 -2 -1 -3 -1 -1 -3 -3 -3 -4 -4 -4 -2 -2 -1 -1 -1 -0 1 -5 -2 -1 -3 -3 3 -0 -1 3 6 -1 1 1 4
1 -1 -3 -2 -1 -1 -0 -1 1 -0 -0 0 -1 -1 -4 -3 -1 -2 -4 -4 -3 -3 -2 -4 -4 -3 -2 -1 -1 -8 5 -1 -0 -1 -0 -2 1 1 4 7 3 -1 -4
1 3 1 -1 -4 -3 -3 -2 -3 -2 -4 -4 -0 -1 -1 -3 -3 -2 -4 -2 -2 -2 -2 -2 -4 -0 -5 -3 -3 -3 -1 2 0 -1 -0 0 4 3 -1 6 6 -2 1
2 1 0 -1 0 -0 1 -1 -4 -7 -6 -4 -5 -3 -3 -3 -3 -5 -4 -2 -3 -2 -3 -4 -3 -5 2 -2 -3 -2 -4 -5 -1 3 4 3 2 4 1 2 2 -1 8
1 2 1 -1 -1 -1 1 -0 -2 -3 -4 -4 -5 -5 -4 -6 -3 -2 -1 -3 -3 -4 -4 -4 -4 3 2 -2 -1 -5 -6 -2 -2 -1 4 4 -0 3 3 -2 0 3 -5
-3 -2 -2 -2 -1 -1 -3 -1 -2 -5 -3 -3 -3 -5 -5 -6 -6 -7 -4 -4 -4 -4 -4 -3 -2 -5 -3 5 1 -2 -7 -5 -4 -1 -3 -0 5 1 2 2 1 7 0
-3 -1 -1 -2 1 -1 -1 -2 -1 -2 -1 -2 -2 -4 -3 -4 -6 -4 -4 -7 -5 -2 -4 -2 -1 -4 -0 1 -1 -1 2 1 -5 -1 4 5 6 5 1 3 4 1 -0
-1 -1 -2 -1 -1 -0 -2 -0 -2 -4 -4 -1 -3 -1 -4 -4 -2 -4 -4 -3 -5 -5 -4 -3 -2 0 0 -0 -0 4 2 1 1 -1 -1 -2 0 0 2 3 3 1 2
0 1 -1 -2 -2 1 -0 1 0 -2 -2 -3 -4 -2 -4 -3 -3 -1 -3 -2 -7 -4 -7 -7 -4 -3 -1 -4 5 3 3 4 4 -1 2 1 1 1 -1 -1 -0 1 -1
-3 -0 0 1 -1 2 -1 -1 1 -2 -2 -2 -2 -2 -4 -3 -2 -1 -4 -5 -1 -6 -5 -2 -5 -7 -0 -3 -2 0 1 2 2 -2 0 -0 1 3 3 1 3 2 2
Height
5595 5598 5602 5608 5614 5619 5625 5631 5636 5643 5650 5655 5661 5667 5673 5680 5682 5688 5692 5695 5700 5704 5710 5714 5718 5722 5728 5731 5735 5738 5742 5746 5753 5757 5761 5764 5766 5771 5775 5778 5782 5785 5788
5580 5584 5588 5594 5599 5604 5610 5615 5619 5624 5632 5641 5647 5652 5659 5666 5670 5676 5677 5684 5688 5693 5698 5704 5708 5712 5716 5721 5726 5730 5734 5738 5743 5751 5753 5755 5755 5760 5765 5769 5773 5775 5778
5565 5568 5574 5579 5585 5590 5595 5600 5605 5609 5614 5622 5630 5637 5644 5650 5657 5658 5667 5673 5679 5684 5688 5691 5693 5700 5706 5711 5715 5721 5726 5730 5735 5737 5743 5747 5750 5753 5755 5759 5762 5766 5768
5551 5556 5560 5565 5569 5575 5580 5585 5590 5593 5599 5605 5611 5620 5628 5634 5640 5649 5653 5658 5664 5668 5676 5684 5684 5691 5696 5701 5705 5710 5715 5719 5725 5728 5733 5736 5743 5744 5744 5748 5753 5757 5760
5538 5541 5546 5551 5555 5561 5566 5571 5574 5578 5583 5591 5596 5603 5610 5619 5626 5634 5640 5646 5653 5659 5665 5670 5672 5672 5683 5690 5693 5698 5703 5707 5713 5718 5723 5727 5731 5734 5737 5739 5744 5748 5750
5528 5532 5534 5538 5543 5547 5552 5556 5561 5564 5567 5574 5582 5589 5595 5602 5609 5617 5625 5630 5638 5644 5649 5655 5662 5667 5669 5675 5680 5688 5689 5695 5699 5705 5711 5717 5721 5725 5727 5730 5734 5736 5738
5514 5518 5522 5525 5529 5533 5537 5543 5547 5552 5557 5560 5565 5572 5581 5587 5594 5601 5609 5615 5623 5630 5636 5642 5648 5652 5657 5662 5667 5670 5675 5679 5686 5691 5696 5702 5708 5712 5715 5718 5721 5724 5729
5501 5504 5508 5512 5516 5521 5525 5530 5534 5538 5544 5549 5554 5559 5566 5573 5579 5585 5592 5595 5605 5615 5620 5627 5634 5638 5643 5648 5653 5660 5664 5668 5673 5676 5682 5687 5691 5697 5701 5705 5708 5710 5715
5490 5494 5497 5501 5505 5509 5514 5519 5522 5526 5530 5535 5539 5545 5551 5556 5564 5571 5577 5583 5589 5592 5601 5609 5616 5622 5627 5632 5637 5643 5650 5654 5658 5660 5665 5671 5675 5680 5684 5689 5695 5698 5702
5482 5486 5489 5492 5496 5500 5504 5508 5512 5515 5519 5523 5526 5531 5536 5541 5548 5554 5560 5567 5573 5579 5586 5590 5597 5604 5610 5615 5623 5628 5632 5639 5642 5643 5648 5654 5658 5662 5666 5671 5676 5681 5687
5474 5477 5480 5484 5487 5490 5494 5498 5501 5505 5508 5512 5515 5519 5524 5528 5533 5538 5544 5550 5556 5563 5568 5572 5580 5586 5592 5599 5604 5609 5613 5619 5623 5629 5634 5635 5641 5645 5649 5651 5657 5664 5671
5464 5468 5472 5474 5477 5480 5484 5487 5490 5493 5497 5500 5504 5507 5511 5515 5519 5524 5529 5534 5539 5543 5549 5556 5562 5567 5574 5581 5586 5592 5595 5600 5605 5611 5617 5620 5624 5627 5632 5636 5642 5647 5653
5454 5458 5462 5465 5468 5471 5474 5477 5480 5483 5486 5489 5492 5496 5499 5502 5506 5509 5514 5519 5523 5527 5531 5537 5541 5548 5554 5560 5564 5570 5575 5582 5587 5592 5599 5604 5607 5609 5612 5616 5622 5627 5632
5446 5451 5455 5458 5461 5463 5465 5468 5470 5472 5475 5478 5481 5483 5487 5490 5493 5496 5499 5503 5507 5511 5516 5519 5523 5528 5533 5537 5543 5547 5553 5560 5566 5571 5577 5582 5586 5591 5594 5600 5605 5608 5612
5438 5443 5446 5449 5452 5454 5457 5460 5461 5463 5465 5467 5470 5473 5476 5478 5481 5483 5486 5488 5491 5494 5498 5501 5505 5508 5513 5516 5520 5525 5531 5537 5544 5549 5555 5561 5565 5569 5574 5578 5583 5588 5592
5429 5433 5436 5439 5442 5444 5447 5449 5451 5454 5456 5458 5460 5462 5464 5467 5469 5471 5474 5476 5477 5479 5482 5484 5487 5489 5492 5495 5499 5503 5508 5513 5519 5525 5531 5538 5543 5547 5551 5555 5559 5565 5571
5419 5422 5425 5429 5431 5433 5435 5437 5439 5441 5444 5446 5449 5451 5453 5455 5457 5459 5461 5462 5464 5465 5467 5469 5470 5472 5473 5476 5479 5483 5489 5494 5500 5504 5509 5514 5518 5525 5528 5533 5538 5542 5547
5407 5410 5414 5416 5419 5421 5422 5424 5425 5427 5429 5431 5434 5436 5439 5441 5443 5444 5446 5447 5449 5451 5452 5454 5456 5457 5457 5459 5460 5462 5469 5471 5475 5481 5486 5490 5494 5500 5505 5510 5514 5519 5525
5395 5397 5400 5403 5406 5408 5409 5410 5411 5413 5414 5416 5417 5418 5419 5421 5423 5425 5427 5429 5430 5431 5433 5435 5438 5440 5441 5441 5441 5443 5447 5451 5454 5459 5462 5467 5471 5475 5481 5486 5489 5495 5501
5383 5385 5387 5389 5391 5393 5394 5395 5396 5398 5399 5400 5401 5401 5401 5402 5403 5404 5406 5407 5409 5410 5412 5414 5416 5417 5420 5421 5423 5424 5427 5430 5434 5437 5439 5443 5449 5451 5456 5460 5465 5471 5477
5373 5374 5376 5376 5377 5378 5379 5379 5380 5381 5381 5382 5383 5383 5382 5383 5383 5383 5384 5383 5385 5385 5386 5389 5391 5393 5395 5397 5398 5401 5405 5409 5412 5415 5420 5423 5425 5428 5432 5436 5442 5449 5451
5362 5363 5364 5364 5364 5365 5366 5366 5366 5367 5366 5366 5365 5364 5363 5363 5362 5361 5361 5360 5361 5359 5358 5361 5361 5363 5367 5371 5372 5375 5379 5382 5386 5392 5397 5400 5403 5406 5410 5414 5418 5422 5425
5354 5353 5353 5353 5353 5352 5352 5352 5352 5352 5352 5351 5351 5350 5349 5348 5347 5344 5343 5341 5339 5337 5336 5336 5335 5336 5337 5339 5343 5347 5350 5354 5358 5364 5370 5374 5379 5382 5385 5390 5394 5397 5400
5344 5343 5342 5342 5342 5342 5341 5341 5340 5340 5341 5340 5340 5339 5337 5335 5333 5330 5327 5325 5323 5320 5316 5313 5311 5309 5309 5310 5313 5318 5321 5323 5326 5331 5338 5344 5349 5354 5359 5364 5369 5373 5378
5335 5334 5333 5332 5332 5332 5332 5333 5332 5331 5330 5330 5328 5326 5324 5321 5318 5316 5313 5309 5305 5301 5296 5292 5289 5285 5283 5282 5286 5288 5289 5292 5295 5299 5305 5311 5318 5323 5329 5335 5341 5346 5351
5324 5324 5324 5323 5323 5323 5323 5322 5322 5321 5319 5318 5316 5313 5310 5308 5305 5302 5297 5293 5290 5284 5280 5275 5269 5264 5262 5258 5257 5258 5259 5260 5263 5267 5272 5278 5285 5293 5299 5307 5314 5319 5324